Regional Weather Roundup
Issued by NWS Midland/Odessa, TX

Skip options and go directly to product.
Home | Oldest Version | Next Version | Current Version | All | Text Only | Save Text | Print | Product List | Glossary On

Skip product version selection by date and time.   
382
ASUS44 KMAF 240902
RWRMAF
MIDLAND AREA WEATHER ROUNDUP
NATIONAL WEATHER SERVICE MIDLAND TX
400 AM CDT THU JUL 24 2014

...IN SOUTHWEST TEXAS AND SOUTHEAST NEW MEXICO...

CITY           SKY/WX    TMP DP  RH WIND       PRES   REMARKS
ALPINE         PTCLDY    69  57  64 CALM      30.29S
ANDREWS        FAIR      74  56  51 CALM      30.18S
ARTESIA        CLEAR     73  52  46 W7        30.18F
BIG SPRING     PTCLDY    80  60  50 E12       30.16F
CARLSBAD       CLEAR     77  51  40 CALM      30.15S
DRYDEN           N/A     83  60  45 NE8       30.07F
FORT STOCKTON  MOCLDY    76  57  51 SE6       30.14F
GUAD PASS      CLEAR     72  50  45 E15       30.32F
HOBBS          CLEAR     72  52  49 E5        30.21S
MARFA          PTCLDY    66  55  68 NE7       30.28S
MIDLAND AIRPK  MOCLDY    78  62  57 SE6       30.15F
MIDLAND INTL   MOCLDY    78  61  55 SE7       30.15S
ODESSA         MOCLDY    79  60  52 SE7       30.16S
PECOS          PTCLDY    75  54  48 E3        30.11F
PRESIDIO       FAIR      82  51  34 NE7       30.11S
SEMINOLE       MOCLDY    73  54  52 E3        30.20S
SNYDER         MOCLDY    77  62  60 S5        30.13F
WINK           CLEAR     76  62  62 E6        30.12S
$$
...OTHER STATIONS IN TEXAS...

CITY           SKY/WX    TMP DP  RH WIND       PRES   REMARKS
ABILENE        MOCLDY    75  65  70 S5        30.09S
AMARILLO       CLEAR     70  62  76 S6        30.20S
AUSTIN         CLOUDY    77  71  82 CALM      29.99F
BROWNSVILLE    CLEAR     76  74  93 S3        29.96F
CORPUS CHRISTI MOCLDY    79  75  87 SE5       29.98F
DALLAS FTW     MOCLDY    78  66  66 SE3       30.02R
DEL RIO        PTCLDY    84  65  52 E6        30.00F
EL PASO        CLEAR     76  52  43 E5        30.16F
HOUSTON INT    MOCLDY    75  72  90 CALM      29.98S
LUBBOCK        CLEAR     73  61  65 SE7       30.18S
SAN ANGELO     PTCLDY    76  64  66 CALM      30.08F
SAN ANTONIO    MOCLDY    81  71  71 S7        30.00F
WACO           CLOUDY    75  67  76 E3        30.01R
WICHITA FALLS  NOT AVBL
$$
...OTHER LOCATIONS IN NEW MEXICO...

CITY           SKY/WX    TMP DP  RH WIND       PRES   REMARKS
ALAMAGORDO     PTCLDY    73  46  38 CALM      30.21F
ALBUQUERQUE    PTCLDY    76  48  37 CALM      30.31S
CANNON AFB     CLEAR     69  60  71 SE1       30.25F
CLOVIS         CLEAR     66  57  72 SW5       30.27
HOLLOMAN AFB   PTCLDY    73  46  38 SE6       30.19F
ROSWELL        CLEAR     74  53  48 W3        30.19F
RUIDOSO        CLEAR     64  45  48 MISG      30.45F
SANTA FE       CLEAR     67  50  54 SE5       30.39F
TRUTH OR CONSE LGT RAIN  71  55  56 NW7       30.24F
TUCUMCARI      CLEAR     74  57  55 SW8       30.21F
$$

USA.gov is the U.S. government's official web portal to all federal, state and local government web resources and services.